Regional Weather Roundup
Issued by NWS

Home | Current Version | Previous Version | Graphics & Text | Print | Product List | Glossary On
Versions: 1 2 3 4 5 6 7 8 9 10 11 12 13 14 15 16 17 18 19 20 21 22 23 24 25 26 27 28
000
ASUS45 KSLC 250910
RWRUT

UTAH REGIONAL WEATHER ROUNDUP
NATIONAL WEATHER SERVICE SALT LAKE CITY UT
300 AM MDT SAT OCT 25 2014

UTZ001>011-023>025-251000-

NORTHERN UTAH

CITY           SKY/WX    TMP DP  RH WIND       PRES   REMARKS
BRIGHAM CITY   CLEAR     45  35  68 CALM      30.10S
HILL AFB       CLEAR     56  28  33 SE6       30.12R
LOGAN          CLEAR     39  33  79 CALM      30.11S
OGDEN          CLEAR     53  29  39 CALM      30.10R
PROVO AIRPORT  CLEAR     52  30  43 S5        30.16S
SALT LAKE CITY CLEAR     64  26  23 S18       30.09R
VERNAL         CLEAR     45  32  60 CALM      30.25S
WENDOVER       CLEAR     46  34  61 E3        30.08F
HEBER CITY     CLEAR     34  28  80 CALM      30.22S
WEST JORDAN    CLEAR     57  36  44 SW3       30.13S

$$

UTZ012>022-026-027-251000-

SOUTHERN/CENTRAL UTAH

CITY           SKY/WX    TMP DP  RH WIND       PRES   REMARKS
BLANDING       PTCLDY    48  31  50 NE3       30.37S
BRYCE CANYON   CLEAR     31  25  78 W6        30.38S WCI  25
CEDAR CITY     PTCLDY    49  32  52 S7        30.22S
DELTA          CLEAR     53  28  38 S12       30.15S
HANKSVILLE       N/A     46  32  57 W3        30.23S
MILFORD        CLEAR     47  29  49 SW9       30.18S
MOAB/CYNLANDS  CLEAR     49  32  52 CALM      30.21R
PRICE          CLEAR     47  32  56 NE6       30.27F
ST GEORGE      SUNNY     61  34  36 CALM      30.13S

$$

REGIONAL REPORTS     COLORADO/ARIZONA

CITY           SKY/WX    TMP DP  RH WIND       PRES   REMARKS
CRAIG, CO      CLEAR     32  25  75 CALM      30.32S
GRAND JUNCTION CLEAR     46  33  60 E5        30.25S
RIFLE          CLEAR     39  31  72 CALM      30.32S
MONTROSE       CLEAR     43  30  60 S9        30.34R
CORTEZ         CLEAR     33  27  78 NE5       30.33F WCI  29
PAGE, AZ       CLEAR     57  34  41 CALM      30.19S
GRAND CANYON   CLEAR     33  23  66 CALM      30.35S SMOKE
KINGMAN        CLEAR     63  40  42 SE13      30.12F
FLAGSTAFF      CLEAR     37  30  75 CALM      30.37F

$$

REGIONAL REPORTS    NEVADA/IDAHO/WYOMING

CITY           SKY/WX    TMP DP  RH WIND       PRES   REMARKS
LAS VEGAS, NV  CLEAR     69  38  32 SW9       29.99S
ELY            CLEAR     50  28  42 SW13      30.20F
ELKO           CLEAR     61  25  25 CALM      30.05S
POCATELLO, ID  CLEAR     38  30  73 CALM      30.05F
BURLEY         CLEAR     46  35  65 E7        29.98F
EVANSTON, WY   CLEAR     49  20  31 SE3       30.27S
ROCK SPRINGS   MOCLDY    45  26  47 E3        30.27F
KEMMERER       PTCLDY    36  27  69 N8        30.28S WCI  29

$$



USA.gov is the U.S. government's official web portal to all federal, state and local government web resources and services.